Oakland, CA

10:41 PM PDT on June 19, 2018 (GMT -0700)
Metro Oakland International

Weather History for KOAK - June, 2018

Change the Weather History Date:

Wednesday, June 13, 2018

  Actual Average Record
Temperature  
Mean Temperature 63 °F 62 °F  
Max Temperature 73 °F 71 °F 92 °F (1966)
Min Temperature 52 °F 54 °F 46 °F (1952)
Degree Days  
Heating Degree Days 2 4  
Month to date heating degree days 45 55  
Since 1 June heating degree days 45 55  
Since 1 July heating degree days 2579 2825  
Cooling Degree Days 0 1  
Month to date cooling degree days 4 2  
Year to date cooling degree days 7 18  
Since 1 June cooling degree days 4 2  
Growing Degree Days 13 (Base 50)    
Moisture  
Dew Point 53 °F    
Average Humidity 71    
Maximum Humidity 93    
Minimum Humidity 49    
Precipitation  
Precipitation 0.00 in 0.01 in 0.00 in (2018)
Month to date precipitation T 0.12  
Year to date precipitation 11.76 13.16  
Sea Level Pressure  
Sea Level Pressure 29.82 in    
Wind  
Wind Speed 10 mph (WSW)    
Max Wind Speed 21 mph    
Max Gust Speed 26 mph    
Visibility 9 miles    
Events      
T = Trace of Precipitation, MM = Missing Value Source: NWS Daily Summary

Daily Weather History Graph

Daily Weather History Graph

Search for Another Location

Airport or City:

Astronomy

Jun. 13, 2018 Rise Set
Actual Time 5:46 AM PDT 8:31 PM PDT
Civil Twilight 5:15 AM PDT 9:02 PM PDT
Nautical Twilight 4:36 AM PDT 9:41 PM PDT
Astronomical Twilight 3:52 AM PDT 10:26 PM PDT
Moon 5:51 AM PDT (6/13) 8:34 PM PDT (6/13)
Length of Visible Light 15h 47m
Length of Day
14h 45m
Waning Crescent, 0% of the Moon is Illuminated
Jun 13
Waning Crescent
Jun 13
New
Jun 20
First Quarter
Jun 27
Full
Jul 6
Last Quarter

Hourly Weather History & Observations

Time (PDT) Temp. Dew Point Humidity Pressure Visibility Wind Dir Wind Speed Gust Speed Precip Events Conditions
12:53 AM 55.9 °F 52.0 °F 87% 29.83 in 9.0 mi Calm Calm - N/A   Clear
1:53 AM 57.0 °F 52.0 °F 83% 29.82 in 9.0 mi South 8.1 mph - N/A   Clear
2:53 AM 57.0 °F 52.0 °F 83% 29.81 in 8.0 mi SW 6.9 mph - N/A   Clear
3:53 AM 54.0 °F 51.1 °F 90% 29.80 in 9.0 mi Calm Calm - N/A   Clear
4:53 AM 55.9 °F 53.1 °F 90% 29.80 in 9.0 mi Calm Calm - N/A   Clear
5:53 AM 57.0 °F 51.1 °F 81% 29.81 in 5.0 mi SW 6.9 mph - N/A   Haze
6:53 AM 57.9 °F 52.0 °F 81% 29.81 in 7.0 mi SSW 3.5 mph - N/A   Clear
7:53 AM 60.1 °F 52.0 °F 75% 29.83 in 7.0 mi South 5.8 mph - N/A   Clear
8:53 AM 61.0 °F 51.1 °F 70% 29.84 in 9.0 mi SW 5.8 mph - N/A   Clear
9:53 AM 62.1 °F 51.1 °F 67% 29.84 in 9.0 mi WSW 4.6 mph - N/A   Clear
10:53 AM 66.0 °F 50.0 °F 56% 29.83 in 9.0 mi WSW 4.6 mph - N/A   Clear
11:53 AM 70.0 °F 52.0 °F 53% 29.83 in 10.0 mi West 6.9 mph - N/A   Clear
12:53 PM 72.0 °F 52.0 °F 49% 29.83 in 10.0 mi West 9.2 mph - N/A   Clear
1:53 PM 72.0 °F 52.0 °F 49% 29.82 in 10.0 mi West 10.4 mph - N/A   Clear
2:53 PM 72.0 °F 55.0 °F 55% 29.82 in 10.0 mi West 15.0 mph - N/A   Clear
3:53 PM 69.1 °F 55.9 °F 63% 29.81 in 10.0 mi West 13.8 mph - N/A   Partly Cloudy
4:53 PM 68.0 °F 55.9 °F 65% 29.80 in 10.0 mi WSW 16.1 mph - N/A   Partly Cloudy
5:53 PM 66.0 °F 55.9 °F 70% 29.79 in 8.0 mi WSW 17.3 mph - N/A   Partly Cloudy
6:53 PM 63.0 °F 55.0 °F 75% 29.79 in 7.0 mi WSW 15.0 mph - N/A   Partly Cloudy
7:53 PM 62.1 °F 53.1 °F 72% 29.80 in 10.0 mi West 13.8 mph - N/A   Partly Cloudy
8:53 PM 60.1 °F 53.1 °F 78% 29.80 in 10.0 mi West 17.3 mph - N/A   Partly Cloudy
9:53 PM 57.0 °F 52.0 °F 83% 29.82 in 8.0 mi WSW 15.0 mph - N/A   Partly Cloudy
10:53 PM 55.9 °F 52.0 °F 87% 29.83 in 7.0 mi WSW 12.7 mph - N/A   Partly Cloudy
11:53 PM 55.9 °F 52.0 °F 87% 29.82 in 7.0 mi SSW 8.1 mph - N/A   Partly Cloudy